Regional Weather Roundup
Issued by NWS

Home | Current Version | Previous Version | Text Only | Print | Product List | Glossary Off
Versions: 1 2 3 4 5 6 7 8 9 10 11 12 13 14 15 16 17 18 19 20 21 22 23 24 25 26 27 28 29 30 31 32 33 34 35 36 37 38 39 40 41 42 43 44 45 46 47 48 49 50

000
ASUS45 KPSR 060700
RWRAZ

ARIZONA HOURLY REGIONAL WEATHER ROUNDUP
NATIONAL WEATHER SERVICE PHOENIX AZ
1200 AM MST MON JUL 06 2015

NOTE: FAIR INDICATES FEW OR NO CLOUDS BELOW 12,000 FEET WITH NO
SIGNIFICANT WEATHER AND/OR OBSTRUCTIONS TO VISIBILITY.

AZZ001>003-036-060800-
NORTHWEST ARIZONA

CITY           SKY/WX    TMP DP  RH WIND       PRES   REMARKS
KINGMAN        CLOUDY    77  56  48 E6        30.08R
$$

AZZ004>008-015-016-018-060800-
NORTH CENTRAL ARIZONA

CITY           SKY/WX    TMP DP  RH WIND       PRES   REMARKS
GRAND CANYON   CLOUDY    60  52  74 NE6       30.28F
WILLIAMS       CLOUDY    59  54  82 SE6       30.36F
PRESCOTT       CLOUDY    63  61  93 SW8       30.21F
FLAGSTAFF      NOT AVBL
PAYSON         MOCLDY    66  57  72 CALM      30.21S
PAGE           CLOUDY    81  48  31 CALM      30.06S
$$

AZZ009>014-017-060800-
NORTHEAST ARIZONA

CITY           SKY/WX    TMP DP  RH WIND       PRES   REMARKS
WINSLOW        NOT AVBL
SAINT JOHNS    CLOUDY    67  56  67 E6        30.22F
WINDOW ROCK    CLOUDY    61  57  87 CALM      30.28F
SHOW LOW       CLOUDY    59  54  82 S6        30.28S
$$

AZZ023-060800-
GREATER PHOENIX AREA

CITY           SKY/WX    TMP DP  RH WIND       PRES   REMARKS
PHOENIX        MOCLDY    84  65  52 SE7       29.92F
LUKE AFB       PTCLDY    86  64  48 SE3       29.92F
DEER VALLEY    CLEAR     83  65  54 CALM      29.95S
SCOTTSDALE     PTCLDY    83  64  52 E3        29.96S
MESA-GATEWAY   MOCLDY    81  66  61 SE3       29.97F
$$

AZZ027-028-060800-
SOUTHWEST MARICOPA COUNTY AND PINAL COUNTY

CITY           SKY/WX    TMP DP  RH WIND       PRES   REMARKS
CASA GRANDE    PTCLDY    77  70  78 CALM      29.94S
GILA BEND      FAIR      89  62  40 SE7       29.89S
$$

AZZ503-504-507>509-060800-
SOUTHEAST ARIZONA

CITY           SKY/WX    TMP DP  RH WIND       PRES   REMARKS
TUCSON         MOCLDY    78  63  59 S3        30.05F
DAVIS-MONTHAN  PTCLDY    75  68  79 S5        30.03F
NOGALES        PTCLDY    69  62  78 CALM      30.14S
SIERRA VISTA   CLOUDY    70  59  67 SW3       30.19S
SAFFORD        CLOUDY    71  67  87 CALM      30.06S
$$

AZZ020-021-025-026-031-060800-
SOUTHWEST ARIZONA

CITY           SKY/WX    TMP DP  RH WIND       PRES   REMARKS
YUMA           CLEAR     88  59  37 S8        29.83S
$$

CAZ031-033-041-043-047-048-061-060800-
SOUTHERN CALIFORNIA

CITY           SKY/WX    TMP DP  RH WIND       PRES   REMARKS
DOWNTOWN L.A.  CLOUDY    66  59  78 CALM      30.01F
L.A. AIRPORT   CLOUDY    64  59  83 VRB3      30.02F
SAN DIEGO      CLOUDY    67  58  72 NW5       30.03F
BURBANK        CLOUDY    65  58  78 S5        30.01F
ONTARIO        CLOUDY    65  59  81 W8        30.02S
RIVERSIDE      PTCLDY    64  59  83 W6        30.02F
PALM SPRINGS   CLEAR     86  58  38 NW9       29.88R
EL CENTRO NAS  CLEAR     86  59  39 SE5       29.81S
IMPERIAL       CLEAR     89  56  32 SE12      29.79S
BLYTHE         CLEAR     90  54  29 S6        29.83R
$$

NVZ020-UTZ003-060800-
SOUTHERN NEVADA-UTAH

CITY           SKY/WX    TMP DP  RH WIND       PRES   REMARKS
LAS VEGAS      NOT AVBL
SALT LAKE CITY CLEAR     74  61  63 CALM      30.03R
$$

NMZ009-TXZ055-060800-
NEW MEXICO-WEST TEXAS

CITY           SKY/WX    TMP DP  RH WIND       PRES   REMARKS
ALBUQUERQUE    CLOUDY    68  61  78 S5        30.16S
EL PASO        MOCLDY    83  58  42 W13       30.04S
$$


........................KEY........................
SKY/WX - SKY CONDITION/WEATHER
TMP    - TEMPERATURE IN FAHRENHEIT
DP     - DEW POINT IN FAHRENHEIT
RH     - RELATIVE HUMIDITY IN PERCENT
WIND   - DIRECTION AND SPEED IN MILES PER HOUR (MPH)
VRB    - VARIABLE WIND DIRECTION
PRES   - MEAN SEA LEVEL PRESSURE IN INCHES OF MERCURY
         F - FALLING PRESSURE   R - RISING PRESSURE
         S - STEADY PRESSURE
VSB    - VISIBILITY IN MILES
HX     - HEAT INDEX IN FAHRENHEIT
WCI    - WIND CHILL INDEX IN FAHRENHEIT
TC     - TEMPERATURE IN CELSIUS WHICH IS ALSO KNOWN AS
         TEMPERATURE IN CENTIGRADE
AFB    - AIR FORCE BASE
         LUKE AFB IS LUKE AIR FORCE BASE
         DAVIS-MONTHAN IS DAVIS-MONTHAN AIR FORCE BASE
NAS    - NAVAL AIR STATION
         EL CENTRO NAS IS EL CENTRO NAVAL AIR STATION
N/A    - NOT AVAILABLE




USA.gov is the U.S. government's official web portal to all federal, state and local government web resources and services.